Lid_Strength_Index
10 9 10 12 13 11 15 15 16 14 13 10 9 8 7 7 6 6 6 5 4 4 3 3 3 2 2 2 2 2 1 1
10 9 10 12 10 14 15 20 20 16 15 13 11 10 8 8 7 6 5 5 4 4 3 3 2 2 2 2 2 2 1 1
11 12 12 13 13 12 12 14 17 18 15 11 9 8 9 8 7 6 6 5 4 4 3 3 2 2 2 2 2 2 1 1
14 10 10 12 14 13 14 16 14 15 14 9 9 8 8 8 6 6 5 5 4 4 3 3 3 3 2 2 2 2 1 1
15 14 12 14 14 16 16 15 14 15 14 9 10 10 9 9 7 5 5 5 4 4 4 3 3 3 3 2 2 2 1 2
18 16 14 16 15 15 16 19 14 13 12 11 9 10 10 10 10 8 6 5 5 4 4 3 3 3 3 2 2 2 2 2
13 13 14 15 15 15 17 16 17 13 13 11 10 9 10 9 8 9 8 6 5 5 4 3 3 3 3 2 2 2 2 2
14 14 14 15 14 14 14 14 14 14 14 10 9 8 8 8 7 7 7 7 5 4 4 4 3 3 3 3 2 2 2 2
17 14 15 16 14 12 13 13 13 14 12 9 10 9 8 8 7 7 7 6 7 4 4 3 3 3 3 3 2 2 2 2
17 14 19 13 9 11 13 13 13 12 11 9 9 8 8 8 7 7 6 6 4 3 3 3 2 2 2 2 2 2 2 2
18 17 15 12 11 13 14 14 12 13 14 13 9 8 9 11 10 9 7 5 5 3 3 3 3 2 2 3 3 3 3 2
15 18 20 14 11 10 11 16 12 13 13 14 8 14 13 11 12 10 8 5 4 3 3 3 3 2 3 3 3 3 3 2
17 17 15 12 11 10 15 16 12 13 14 14 13 11 11 12 11 11 8 6 4 4 4 3 2 2 3 3 3 2 2 2
15 17 19 12 11 14 13 12 12 12 12 14 13 11 12 13 12 10 9 7 6 4 4 3 3 3 3 3 2 2 2 2
15 15 12 11 12 11 11 12 12 13 12 12 13 13 12 14 13 9 9 8 8 7 4 3 3 2 3 3 2 2 2 2
14 13 12 11 10 10 10 11 11 10 11 12 13 12 12 12 13 13 10 9 8 8 8 7 4 3 3 2 2 2 3 2
14 12 11 10 9 10 10 10 10 9 9 11 11 12 11 12 12 11 10 9 8 8 8 8 7 4 2 2 3 3 3 3
15 11 11 11 9 9 10 10 10 9 10 9 10 10 11 11 11 11 9 9 9 9 8 9 8 7 4 2 2 2 3 3
11 9 8 8 9 9 9 9 9 9 9 9 8 9 10 10 10 10 10 8 7 8 9 8 8 8 5 3 2 2 3 3